Morristown, NJ

12:27 AM EST on December 15, 2019 (GMT -0500)
Morristown Municipal

Weather History for KMMU - July, 2019

Change the Weather History Date:

Saturday, July 20, 2019

  Actual Average Record
Temperature  
Mean Temperature 84 °F -  
Max Temperature 95 °F 87 °F 102 °F (2003)
Min Temperature 73 °F 64 °F 50 °F (1939)
Cooling Degree Days 19    
Growing Degree Days 34 (Base 50)    
Moisture  
Dew Point 76 °F    
Average Humidity 83    
Maximum Humidity 100    
Minimum Humidity 53    
Precipitation  
Precipitation 0.00 in - - ()
Sea Level Pressure  
Sea Level Pressure 29.85 in    
Wind  
Wind Speed 3 mph (West)    
Max Wind Speed 13 mph    
Max Gust Speed 18 mph    
Visibility 8 miles    
Events      
Averages and records for this station are not official NWS values.
T = Trace of Precipitation, MM = Missing Value Source: NWS Daily Summary

Daily Weather History Graph

Daily Weather History Graph

Search for Another Location

Airport or City:

Astronomy

Jul. 20, 2019 Rise Set
Actual Time 5:42 AM EDT 8:24 PM EDT
Civil Twilight 5:10 AM EDT 8:56 PM EDT
Nautical Twilight 4:30 AM EDT 9:36 PM EDT
Astronomical Twilight 3:45 AM EDT 10:21 PM EDT
Moon 10:49 PM EDT (7/20) 9:05 AM EDT (7/20)
Length of Visible Light 15h 45m
Length of Day
14h 41m
Waning Gibbous, 87% of the Moon is Illuminated
Jul 20
Waning Gibbous
Jul 24
Last Quarter
Jul 31
New
Aug 7
First Quarter
Aug 15
Full

Hourly Weather History & Observations

Time (EDT) Temp. Heat Index Dew Point Humidity Pressure Visibility Wind Dir Wind Speed Gust Speed Precip Events Conditions
12:15 AM 82.4 °F 90.9 °F 77.0 °F 84% 29.85 in 10.0 mi WSW 3.5 mph - N/A   Clear
12:35 AM 78.8 °F - 78.8 °F 100% 29.86 in 10.0 mi Calm Calm - N/A   Clear
12:55 AM 77.0 °F - 77.0 °F 100% 29.86 in 7.0 mi Calm Calm - N/A   Clear
1:15 AM 77.0 °F - 77.0 °F 100% 29.85 in 10.0 mi Calm Calm - N/A   Clear
1:35 AM 77.0 °F - 77.0 °F 100% 29.86 in 7.0 mi Calm Calm - N/A   Clear
1:55 AM 77.0 °F - 77.0 °F 100% 29.86 in 5.0 mi Calm Calm - N/A   Clear
2:15 AM 75.2 °F - 75.2 °F 100% 29.86 in 7.0 mi Calm Calm - N/A   Clear
2:35 AM 75.2 °F - 75.2 °F 100% 29.86 in 7.0 mi Calm Calm - N/A   Clear
2:55 AM 75.2 °F - 75.2 °F 100% 29.86 in 5.0 mi Calm Calm - N/A   Clear
3:15 AM 75.2 °F - 75.2 °F 100% 29.85 in 1.8 mi Calm Calm - N/A   Mist
3:35 AM 75.2 °F - 75.2 °F 100% 29.85 in 3.0 mi Calm Calm - N/A   Clear
3:55 AM 75.2 °F - 75.2 °F 100% 29.85 in 2.5 mi Calm Calm - N/A   Clear
4:15 AM 73.4 °F - 73.4 °F 100% 29.85 in 0.8 mi Calm Calm - N/A   Mist
4:35 AM 75.2 °F - 75.2 °F 100% 29.85 in 4.0 mi Calm Calm - N/A   Clear
4:55 AM 75.2 °F - 75.2 °F 100% 29.86 in 5.0 mi Calm Calm - N/A   Clear
5:15 AM 73.4 °F - 73.4 °F 100% 29.86 in 4.0 mi Calm Calm - N/A   Clear
5:35 AM 73.4 °F - 73.4 °F 100% 29.87 in 5.0 mi Calm Calm - N/A   Clear
5:55 AM 73.4 °F - 73.4 °F 100% 29.87 in 5.0 mi Calm Calm - N/A   Clear
6:15 AM 73.4 °F - 73.4 °F 100% 29.87 in 4.0 mi Calm Calm - N/A   Clear
6:35 AM 75.2 °F - 75.2 °F 100% 29.88 in 1.5 mi Calm Calm - N/A   Mist
6:45 AM 75.2 °F - 75.2 °F 100% 29.89 in 10.0 mi Calm Calm - N/A   Mostly Cloudy
7:45 AM 82.4 °F 90.9 °F 77.0 °F 84% 29.89 in 10.0 mi West 5.8 mph - N/A   Partly Cloudy
8:45 AM 86.0 °F 96.9 °F 77.0 °F 74% 29.89 in 10.0 mi NW 3.5 mph - N/A   Mostly Cloudy
9:50 AM 89.6 °F 102.2 °F 77.0 °F 66% 29.87 in 10.0 mi NNW 6.9 mph - N/A   Mostly Cloudy
10:45 AM 89.6 °F 98.2 °F 73.4 °F 59% 29.88 in 10.0 mi West 4.6 mph - N/A   Scattered Clouds
11:45 AM 91.4 °F 105.1 °F 77.0 °F 63% 29.87 in 10.0 mi WNW 10.4 mph - N/A   Mostly Cloudy
12:45 PM 93.2 °F 107.2 °F 77.0 °F 59% 29.86 in 10.0 mi NW 11.5 mph 18.4 mph N/A   Mostly Cloudy
1:45 PM 93.2 °F 107.2 °F 77.0 °F 59% 29.84 in 10.0 mi WNW 6.9 mph - N/A   Mostly Cloudy
2:45 PM 95.0 °F 107.4 °F 75.2 °F 53% 29.83 in 10.0 mi West 12.7 mph 18.4 mph N/A   Scattered Clouds
3:45 PM 95.0 °F 107.4 °F 75.2 °F 53% 29.81 in 10.0 mi WSW 10.4 mph 15.0 mph N/A   Scattered Clouds
4:45 PM 95.0 °F 107.4 °F 75.2 °F 53% 29.80 in 10.0 mi WSW 11.5 mph 18.4 mph N/A   Scattered Clouds
5:55 PM 93.2 °F 105.0 °F 75.2 °F 56% 29.80 in 10.0 mi West 9.2 mph 17.3 mph N/A   Mostly Cloudy
6:45 PM 93.2 °F 105.0 °F 75.2 °F 56% 29.81 in 10.0 mi West 9.2 mph - N/A   Scattered Clouds
7:45 PM 91.4 °F 105.1 °F 77.0 °F 63% 29.82 in 10.0 mi West 9.2 mph - N/A   Scattered Clouds
8:45 PM 89.6 °F 102.2 °F 77.0 °F 66% 29.81 in 10.0 mi WSW 6.9 mph - N/A   Scattered Clouds
8:46 PM 89.6 °F 102.2 °F 77.0 °F 66% 29.81 in 10.0 mi WSW 6.9 mph - N/A   Scattered Clouds
9:45 PM 86.0 °F 96.9 °F 77.0 °F 74% 29.82 in 10.0 mi West 4.6 mph - N/A   Clear
10:35 PM 82.4 °F 90.9 °F 77.0 °F 84% 29.82 in 10.0 mi WSW 3.5 mph - N/A   Clear
10:55 PM 84.2 °F 92.3 °F 75.2 °F 74% 29.81 in 10.0 mi WSW 3.5 mph - N/A   Clear
11:15 PM 84.2 °F 92.3 °F 75.2 °F 74% 29.81 in 10.0 mi WSW 4.6 mph - N/A   Clear
11:35 PM 82.4 °F 89.5 °F 75.2 °F 79% 29.81 in 10.0 mi SSW 3.5 mph - N/A   Clear
11:55 PM 80.6 °F 86.2 °F 75.2 °F 84% 29.81 in 10.0 mi SSW 3.5 mph - N/A   Clear